When you browse on this site, cookies collect data to enhance your experience and personalize the content and advertising you see.
Visit our Privacy Policy to learn more. By continuing to use the site, you agree to this use of cookies and data.
  • En España
  • Lista de países
  • Para 7 días
  • Temperatura del agua
  • El tiempo en el mapa
  • Informadores
  • user-avatar
    Iniciar sesión

    Tiempo cada hora Calgari

    Hoy, 21 Septiembre, Sábado

    Tiempo Temperatura Precipitaciones Viento Presión Humedad
    00:00 +23°C° 0 mm 4 mps 762 mmHg 86%
    01:00 +23°C° 0 mm 5 mps 762 mmHg 87%
    02:00 +23°C° 0 mm 5 mps 762 mmHg 86%
    03:00 +23°C° 0 mm 5 mps 761 mmHg 86%
    04:00 +23°C° 0 mm 5 mps 761 mmHg 85%
    05:00 +23°C° 0 mm 6 mps 761 mmHg 85%
    06:00 +24°C° 0 mm 6 mps 761 mmHg 85%
    07:00 +24°C° 0 mm 6 mps 761 mmHg 86%
    08:00 +26°C° 0.1 mm 6 mps 762 mmHg 81%
    09:00 +27°C° 0.1 mm 6 mps 762 mmHg 76%
    10:00 +28°C° 0.1 mm 6 mps 762 mmHg 71%
    11:00 +29°C° 0.1 mm 6 mps 762 mmHg 70%
    12:00 +29°C° 0.1 mm 6 mps 762 mmHg 69%
    13:00 +29°C° 0.1 mm 6 mps 762 mmHg 68%
    14:00 +29°C° 0 mm 6 mps 761 mmHg 71%
    15:00 +29°C° 0 mm 6 mps 761 mmHg 73%
    16:00 +28°C° 0 mm 7 mps 761 mmHg 76%
    17:00 +28°C° 0 mm 6 mps 761 mmHg 79%
    18:00 +27°C° 0 mm 6 mps 761 mmHg 83%
    19:00 +27°C° 0 mm 5 mps 761 mmHg 86%
    20:00 +27°C° 0.2 mm 5 mps 761 mmHg 88%
    21:00 +26°C° 0.2 mm 4 mps 761 mmHg 89%
    22:00 +26°C° 0.2 mm 3 mps 761 mmHg 90%
    23:00 +26°C° 0 mm 3 mps 760 mmHg 90%

    Mañana, 22 Septiembre, Domingo

    Tiempo Temperatura Precipitaciones Viento Presión Humedad
    00:00 +26°C° 0 mm 3 mps 760 mmHg 91%
    01:00 +26°C° 0 mm 2 mps 760 mmHg 92%
    02:00 +26°C° 0 mm 2 mps 760 mmHg 90%
    03:00 +26°C° 0 mm 2 mps 759 mmHg 89%
    04:00 +25°C° 0 mm 2 mps 759 mmHg 88%
    05:00 +26°C° 0 mm 2 mps 759 mmHg 82%
    06:00 +26°C° 0 mm 3 mps 759 mmHg 77%
    07:00 +27°C° 0 mm 3 mps 758 mmHg 71%
    08:00 +28°C° 0 mm 3 mps 759 mmHg 66%
    09:00 +29°C° 0 mm 4 mps 759 mmHg 60%
    10:00 +30°C° 0 mm 4 mps 759 mmHg 54%
    11:00 +32°C° 0 mm 4 mps 759 mmHg 51%
    12:00 +33°C° 0 mm 4 mps 759 mmHg 48%
    13:00 +33°C° 0 mm 4 mps 759 mmHg 44%
    14:00 +33°C° 0 mm 4 mps 758 mmHg 48%
    15:00 +33°C° 0 mm 5 mps 758 mmHg 52%
    16:00 +32°C° 0 mm 5 mps 757 mmHg 56%
    17:00 +30°C° 0 mm 5 mps 757 mmHg 64%
    18:00 +29°C° 0 mm 4 mps 757 mmHg 72%
    19:00 +27°C° 0 mm 3 mps 757 mmHg 81%
    20:00 +27°C° 0 mm 3 mps 758 mmHg 80%
    21:00 +27°C° 0 mm 2 mps 758 mmHg 80%
    22:00 +27°C° 0 mm 2 mps 758 mmHg 80%
    23:00 +27°C° 0 mm 2 mps 758 mmHg 76%

    Pasado mañana, 23 Septiembre, Lunes

    Tiempo Temperatura Precipitaciones Viento Presión Humedad
    00:00 +27°C° 0 mm 2 mps 758 mmHg 72%
    01:00 +27°C° 0 mm 2 mps 757 mmHg 69%
    02:00 +27°C° 0 mm 2 mps 757 mmHg 71%
    03:00 +26°C° 0 mm 3 mps 757 mmHg 73%
    04:00 +26°C° 0 mm 3 mps 757 mmHg 75%
    05:00 +26°C° 0 mm 3 mps 758 mmHg 76%
    06:00 +26°C° 0 mm 3 mps 758 mmHg 76%
    07:00 +26°C° 0 mm 3 mps 758 mmHg 77%
    08:00 +27°C° 0 mm 3 mps 758 mmHg 67%
    09:00 +29°C° 0 mm 4 mps 759 mmHg 58%
    10:00 +32°C° 0 mm 4 mps 759 mmHg 49%
    11:00 +32°C° 0 mm 5 mps 759 mmHg 46%
    12:00 +33°C° 0 mm 6 mps 759 mmHg 43%
    13:00 +34°C° 0 mm 7 mps 759 mmHg 40%
    14:00 +33°C° 0 mm 7 mps 759 mmHg 43%
    15:00 +32°C° 0 mm 7 mps 758 mmHg 47%
    16:00 +31°C° 0 mm 8 mps 758 mmHg 50%
    17:00 +28°C° 0 mm 7 mps 758 mmHg 57%
    18:00 +27°C° 0 mm 6 mps 759 mmHg 63%
    19:00 +25°C° 0 mm 5 mps 759 mmHg 69%
    20:00 +23°C° 0 mm 5 mps 759 mmHg 70%
    21:00 +22°C° 0 mm 5 mps 759 mmHg 72%
    22:00 +21°C° 0 mm 4 mps 760 mmHg 73%
    23:00 +21°C° 0 mm 4 mps 760 mmHg 75%

    24 Septiembre, Martes

    Tiempo Temperatura Precipitaciones Viento Presión Humedad
    00:00 +21°C° 0 mm 4 mps 760 mmHg 76%
    01:00 +20°C° 0 mm 4 mps 760 mmHg 78%
    02:00 +20°C° 0 mm 4 mps 759 mmHg 79%
    03:00 +20°C° 0 mm 4 mps 759 mmHg 79%
    04:00 +19°C° 0 mm 4 mps 759 mmHg 80%
    05:00 +20°C° 0 mm 4 mps 759 mmHg 79%
    06:00 +20°C° 0 mm 4 mps 759 mmHg 79%
    07:00 +20°C° 0 mm 4 mps 759 mmHg 79%
    08:00 +22°C° 0 mm 5 mps 759 mmHg 69%
    09:00 +25°C° 0 mm 5 mps 760 mmHg 59%
    10:00 +27°C° 0 mm 5 mps 760 mmHg 49%
    11:00 +28°C° 0 mm 6 mps 760 mmHg 46%
    12:00 +29°C° 0 mm 6 mps 760 mmHg 43%
    13:00 +30°C° 0 mm 6 mps 759 mmHg 40%
    14:00 +30°C° 0 mm 6 mps 759 mmHg 42%
    15:00 +29°C° 0 mm 6 mps 759 mmHg 43%
    16:00 +29°C° 0 mm 7 mps 759 mmHg 45%
    17:00 +27°C° 0 mm 6 mps 759 mmHg 52%
    18:00 +26°C° 0 mm 5 mps 759 mmHg 59%
    19:00 +23°C° 0 mm 5 mps 759 mmHg 65%
    20:00 +23°C° 0 mm 5 mps 759 mmHg 73%
    21:00 +22°C° 0 mm 4 mps 759 mmHg 81%
    22:00 +21°C° 0 mm 4 mps 759 mmHg 88%
    23:00 +21°C° 0 mm 4 mps 759 mmHg 90%

    25 Septiembre, Miércoles

    Tiempo Temperatura Precipitaciones Viento Presión Humedad
    00:00 +21°C° 0 mm 4 mps 759 mmHg 91%
    01:00 +21°C° 0 mm 4 mps 758 mmHg 93%
    02:00 +21°C° 0 mm 4 mps 758 mmHg 93%
    03:00 +21°C° 0 mm 4 mps 758 mmHg 93%
    04:00 +21°C° 0 mm 4 mps 758 mmHg 93%
    05:00 +21°C° 0 mm 4 mps 758 mmHg 92%
    06:00 +21°C° 0 mm 4 mps 758 mmHg 90%
    07:00 +21°C° 0 mm 4 mps 758 mmHg 88%
    08:00 +25°C° 0 mm 3 mps 758 mmHg 76%
    09:00 +27°C° 0 mm 3 mps 758 mmHg 64%
    10:00 +29°C° 0 mm 3 mps 758 mmHg 52%
    11:00 +30°C° 0 mm 4 mps 758 mmHg 49%
    12:00 +32°C° 0 mm 4 mps 758 mmHg 46%
    13:00 +33°C° 0 mm 5 mps 758 mmHg 42%
    14:00 +33°C° 0 mm 6 mps 758 mmHg 41%
    15:00 +33°C° 0 mm 6 mps 757 mmHg 40%
    16:00 +32°C° 0 mm 7 mps 757 mmHg 39%
    17:00 +30°C° 0 mm 6 mps 757 mmHg 47%
    18:00 +28°C° 0 mm 5 mps 757 mmHg 54%
    19:00 +26°C° 0 mm 4 mps 757 mmHg 62%
    20:00 +25°C° 0 mm 4 mps 758 mmHg 66%
    21:00 +23°C° 0 mm 4 mps 758 mmHg 70%
    22:00 +22°C° 0 mm 4 mps 758 mmHg 75%
    23:00 +22°C° 0 mm 4 mps 758 mmHg 76%

    26 Septiembre, Jueves

    Tiempo Temperatura Precipitaciones Viento Presión Humedad
    00:00 +22°C° 0 mm 4 mps 758 mmHg 77%
    01:00 +21°C° 0 mm 3 mps 758 mmHg 79%
    02:00 +21°C° 0 mm 3 mps 758 mmHg 79%
    03:00 +21°C° 0 mm 3 mps 758 mmHg 80%
    04:00 +20°C° 0 mm 3 mps 758 mmHg 81%
    05:00 +21°C° 0 mm 4 mps 758 mmHg 80%
    06:00 +21°C° 0 mm 4 mps 758 mmHg 79%
    07:00 +21°C° 0 mm 4 mps 759 mmHg 79%
    08:00 +24°C° 0 mm 3 mps 759 mmHg 67%
    09:00 +26°C° 0 mm 3 mps 759 mmHg 55%
    10:00 +29°C° 0 mm 3 mps 760 mmHg 43%
    11:00 +30°C° 0 mm 3 mps 760 mmHg 40%
    12:00 +32°C° 0 mm 4 mps 760 mmHg 37%
    13:00 +33°C° 0 mm 4 mps 760 mmHg 34%
    14:00 +32°C° 0 mm 4 mps 760 mmHg 37%
    15:00 +32°C° 0 mm 4 mps 759 mmHg 39%
    16:00 +30°C° 0 mm 4 mps 759 mmHg 41%
    17:00 +29°C° 0 mm 4 mps 759 mmHg 46%
    18:00 +27°C° 0 mm 3 mps 759 mmHg 50%
    19:00 +25°C° 0 mm 3 mps 759 mmHg 54%
    20:00 +25°C° 0 mm 2 mps 759 mmHg 54%
    21:00 +24°C° 0 mm 2 mps 759 mmHg 53%
    22:00 +24°C° 0 mm 2 mps 759 mmHg 53%
    23:00 +24°C° 0 mm 1 mps 759 mmHg 54%
    Mostrar más